Lexington Weather

Lexington, Massachusetts, USA

72°F
9/22/2021 2:01pm 
  • Lexington Conditions: Light rain, Mist, Overcast
  • Temperature: 71.8°F / 22.1°CColder 3.0°F than last hour.
  • Dew Point: 68.7°FIncreased 0.5°Fsince last hour.
  • Relative Humidity: 90%Increased 10.0% since last hour.
  • Wind: Wind from NW NW 3 mph, 10-min avg: 4 mph, gust: 11 mph
  • Barometer: 30.09 inFalling 0.02  inHg/hr Falling Slowly
  • Visibility: 2 miles
  • Rain Today: 0.00 in
  •   

Regional Weather Roundup
for Boston / Norton, MA

        
000
ASUS41 KBOX 192204
RWRBOX

REGIONAL WEATHER ROUNDUP
NATIONAL WEATHER SERVICE BOSTON/NORTON MA
600 PM EDT SUN SEP 19 2021

NOTE:  "FAIR" INDICATES FEW OR NO CLOUDS BELOW 12,000 FEET WITH NO 
SIGNIFICANT WEATHER AND/OR OBSTRUCTIONS TO VISIBILITY.

MAZALL-192300-
EASTERN MASSACHUSETTS
  
CITY           SKY/WX    TMP DP  RH WIND       PRES   REMARKS
BOSTON         PTCLDY    67  51  56 E8        30.15R                  
BEVERLY        CLEAR     67  54  63 SE6       30.15R                  
LAWRENCE       CLEAR     72  52  49 N3        30.16R                  
BEDFORD        CLEAR     72  53  51 CALM      30.14R                  
BLUE HILL      NOT AVBL                                               
NORWOOD        CLEAR     72  52  49 NW7       30.14R                  
MARSHFIELD     CLEAR     68  54  60 NE3       30.15R                  
PLYMOUTH       CLEAR     66  49  54 E5        30.16R                  
TAUNTON        CLEAR     69  50  50 SE6       30.14R                  
NEW BEDFORD    CLEAR     68  49  50 NE5       30.14R                  
$$

MAZALL-192300-
CAPE COD AND THE ISLANDS
  
CITY           SKY/WX    TMP DP  RH WIND       PRES   REMARKS
FALMOUTH       CLEAR     66  48  52 NE9       30.15R                  
HYANNIS        CLEAR     65  50  58 NE8       30.13S                  
CHATHAM        CLEAR     65  50  58 N5        30.15R                  
PROVINCETOWN   CLEAR     65  55  70 NE8       30.16R                  
NANTUCKET      CLEAR     67  52  58 N14       30.14R                  
MARTHAS VNYRD  CLEAR     66  50  56 NE6       30.14R                  
$$
 
MAZALL-192300-
CENTRAL AND WESTERN MASSACHUSETTS
  
CITY           SKY/WX    TMP DP  RH WIND       PRES   REMARKS
WORCESTER      CLEAR     70  49  47 W3        30.17R                  
FITCHBURG      CLEAR     72  48  42 SE5       30.16R                  
ORANGE         CLEAR     72  48  42 N6        30.17R                  
SPRINGFIELD    PTCLDY    72  46  39 NE5       30.15R                  
WESTFIELD      CLEAR     73  52  47 NE3       30.15R                  
NORTH ADAMS    CLEAR     68  51  54 VRB6      30.19R                  
PITTSFIELD     CLEAR     65  52  62 NW6       30.18R                  
$$
 
RIZALL-192300-
RHODE ISLAND
  
CITY           SKY/WX    TMP DP  RH WIND       PRES   REMARKS
PROVIDENCE     PTCLDY    73  51  46 NW7       30.15R                  
NEWPORT        CLEAR     68  50  52 E3        30.15R                  
BLOCK ISLAND   CLEAR     67  50  54 E6        30.16R                  
SMITHFIELD     CLEAR     69  54  58 CALM      30.16R                  
WESTERLY       CLEAR     69  55  60 S7        30.15R                  
$$
 
CTZALL-192300-
CONNECTICUT
  
CITY           SKY/WX    TMP DP  RH WIND       PRES   REMARKS
BRADLEY INTL   PTCLDY    73  44  35 N5        30.15R                  
HARTFORD       CLEAR     74  46  36 N7        30.14S                  
BRIDGEPORT     CLEAR     75  48  38 E7        30.14S                  
DANBURY        CLEAR     74  53  48 NW8       30.17R                  
GROTON         CLEAR     70  56  61 S9        30.15R                  
NEW HAVEN      CLEAR     74  49  41 N6        30.15R                  
CHESTER        FAIR      72  55  56 NW5       30.16R                  
MERIDEN        CLEAR     73  45  36 CALM      30.15S                  
WILLIMANTIC    CLEAR     71  55  56 CALM      30.15R                  
OXFORD         CLEAR     71  51  49 E3        30.18R                  
$$

MEZ002-015-021-024-NHZ003-005-008-011-012-014-VTZ005-008-192300-
NORTHERN NEW ENGLAND
  
CITY           SKY/WX    TMP DP  RH WIND       PRES   REMARKS
PORTLAND ME    CLEAR     69  49  48 N5        30.15R                  
BANGOR ME      PTCLDY    67  48  50 NE8       30.14R                  
CONCORD NH     CLEAR     72  47  40 N3        30.15R                  
MANCHESTER NH  CLEAR     74  47  38 NW8       30.13R                  
NASHUA NH      CLEAR     67  59  75 CALM      30.15R                  
PORTSMOUTH NH  PTCLDY    67  48  50 SE7       30.16R                  
JAFFREY NH     CLEAR     70  53  54 VRB3      30.18R                  
KEENE NH       CLEAR     71  50  47 NW5       30.16S                  
BURLINGTON VT  PTCLDY    67  45  45 NE7       30.21R                  
MT. WASHINGTON PTCLDY    45  28  53 NW9         N/A                   
$$

NYZ052-076-192300-
EASTERN NEW YORK
  
CITY           SKY/WX    TMP DP  RH WIND       PRES   REMARKS
ALBANY         PTCLDY    67  51  56 NE5       30.19R                  
NEW YORK CITY  MOSUNNY   77  50  38 CALM      30.15R                  
$$
 
ANZALL-192300-
MARINE OBSERVATIONS
  
STATION/POSITION TIME  TEMP    WIND        PRES    VSBY  WAVE
                       AIR SEA DIR/SP/G                  HT/PER
                 (UTC) (F)     (DEG/KT/KT) (MB)    (MI)  (FT/S)
BOSTON BUOY      2140      66   80/  4/  6 1021.4R
BUZZARDS BAY     2100           30/ 12/ 14 1021.6R
NANTUCKET SOUND  2140   67 72   10/ 14/ 17 1020.5R
MASS BAY-STELLWA 2104   65      70/  4/  6 1020.3R  1 7/8  5/ 8
ISLE OF SHOALS   2100   65     150/  5/  5 1020.0R
S OF BLOCK IS    2126      71                N/A           4/ 4
$$

......................KEY.........................
  SKY/WX - SKY CONDITION/PRESENT WEATHER
  TMP    - TEMPERATURE IN FAHRENHEIT
  DWPT   - DEWPOINT IN FAHRENHEIT
  RH     - RELATIVE HUMIDITY IN PERCENT
  WIND   - DIRECTION AND SPEED IN MPH
  PRES   - MEAN SEA LEVEL PRESSURE IN INCHES OF HG
  WCI    - WIND CHILL INDEX
  VSB    - VISIBILITY IN MILES
  HX     - HEAT INDEX
  TC     - TEMPERATURE IN CELSIUS
  VRB    - VARIABLE WIND DIRECTION
  N/A    - NOT AVAILABLE
  
      

Other recent Regional Weather Roundups

Wed Sep 22, 1:04pm

Wed Sep 22, 12:05pm

Wed Sep 22, 11:04am

Wed Sep 22, 10:04am

Wed Sep 22, 9:04am

Wed Sep 22, 8:04am

Wed Sep 22, 7:04am

Wed Sep 22, 6:04am

Wed Sep 22, 5:04am

Wed Sep 22, 4:04am

Wed Sep 22, 3:04am

Wed Sep 22, 2:04am

Wed Sep 22, 1:04am

Wed Sep 22, 12:04am

Tue Sep 21, 11:04pm

Tue Sep 21, 10:04pm

Tue Sep 21, 9:04pm

Tue Sep 21, 8:04pm

Tue Sep 21, 7:04pm

Tue Sep 21, 6:04pm

Tue Sep 21, 5:04pm

Tue Sep 21, 4:04pm

Tue Sep 21, 3:04pm

Tue Sep 21, 2:04pm

Tue Sep 21, 1:04pm

Tue Sep 21, 12:04pm

Tue Sep 21, 11:04am

Tue Sep 21, 10:04am

Tue Sep 21, 9:04am

Tue Sep 21, 8:04am

Tue Sep 21, 7:04am

Tue Sep 21, 6:04am

Tue Sep 21, 5:04am

Tue Sep 21, 4:04am

Tue Sep 21, 3:04am

Tue Sep 21, 2:04am

Tue Sep 21, 1:04am

Tue Sep 21, 12:04am

Mon Sep 20, 11:04pm

Mon Sep 20, 10:04pm

Mon Sep 20, 9:04pm

Mon Sep 20, 8:04pm

Mon Sep 20, 7:04pm

Mon Sep 20, 6:04pm

Mon Sep 20, 5:04pm

Mon Sep 20, 4:04pm

Mon Sep 20, 3:04pm

Mon Sep 20, 2:04pm

Mon Sep 20, 1:04pm

Mon Sep 20, 12:04pm

Mon Sep 20, 11:04am

Mon Sep 20, 10:04am

Mon Sep 20, 9:04am

Mon Sep 20, 7:04am

Mon Sep 20, 6:04am

Mon Sep 20, 5:04am

Mon Sep 20, 4:04am

Mon Sep 20, 3:04am

Mon Sep 20, 2:04am

Mon Sep 20, 1:04am

Mon Sep 20, 12:04am

Sun Sep 19, 11:04pm

Sun Sep 19, 10:04pm

Sun Sep 19, 9:04pm

Sun Sep 19, 8:04pm

Sun Sep 19, 7:04pm

Sun Sep 19, 5:04pm

Sun Sep 19, 4:04pm

Sun Sep 19, 3:04pm

Sun Sep 19, 2:05pm

Sun Sep 19, 1:04pm

Sun Sep 19, 12:04pm

Sun Sep 19, 11:04am

Sun Sep 19, 10:05am

Sun Sep 19, 9:04am

Sun Sep 19, 8:04am

Sun Sep 19, 7:04am

Sun Sep 19, 6:04am

Sun Sep 19, 5:04am

Sun Sep 19, 4:04am

Sun Sep 19, 3:04am

Sun Sep 19, 2:04am

Sun Sep 19, 1:04am

Sun Sep 19, 12:04am

Sat Sep 18, 11:05pm

Sat Sep 18, 10:04pm

Sat Sep 18, 9:04pm

Sat Sep 18, 8:04pm

Sat Sep 18, 7:04pm

Sat Sep 18, 6:04pm

Sat Sep 18, 5:04pm

Sat Sep 18, 4:04pm

Sat Sep 18, 3:04pm

Sat Sep 18, 2:04pm

Sat Sep 18, 1:04pm

Sat Sep 18, 12:04pm

Sat Sep 18, 11:04am

Sat Sep 18, 10:04am

Sat Sep 18, 9:04am

Sat Sep 18, 8:04am

Sat Sep 18, 7:04am

Sat Sep 18, 6:04am

Sat Sep 18, 5:04am

Sat Sep 18, 4:04am

Sat Sep 18, 3:04am

Sat Sep 18, 2:04am

Sat Sep 18, 1:04am

Sat Sep 18, 12:04am

Fri Sep 17, 11:04pm

Fri Sep 17, 10:04pm

Fri Sep 17, 9:04pm

Fri Sep 17, 8:04pm

Fri Sep 17, 7:04pm

Fri Sep 17, 6:04pm

Fri Sep 17, 5:04pm

Fri Sep 17, 4:04pm

Fri Sep 17, 3:04pm

Fri Sep 17, 2:04pm

Fri Sep 17, 1:04pm

Fri Sep 17, 12:05pm

Fri Sep 17, 11:04am

Fri Sep 17, 10:04am

Fri Sep 17, 9:04am

Fri Sep 17, 8:04am

Fri Sep 17, 7:04am

Fri Sep 17, 6:04am

Fri Sep 17, 5:04am

Fri Sep 17, 4:04am

Fri Sep 17, 3:04am

Fri Sep 17, 2:04am

Fri Sep 17, 1:04am

Fri Sep 17, 12:04am

Thu Sep 16, 11:04pm

Thu Sep 16, 10:04pm

Thu Sep 16, 9:04pm

Thu Sep 16, 8:04pm

Thu Sep 16, 7:04pm

Thu Sep 16, 6:04pm

Thu Sep 16, 5:04pm

Thu Sep 16, 4:04pm

Thu Sep 16, 3:04pm

Thu Sep 16, 2:04pm

Thu Sep 16, 1:05pm

Thu Sep 16, 12:04pm

Thu Sep 16, 11:05am

Thu Sep 16, 10:05am

Thu Sep 16, 9:04am

Thu Sep 16, 8:04am

Thu Sep 16, 7:04am

Thu Sep 16, 6:04am

Thu Sep 16, 5:04am

Thu Sep 16, 4:04am

Thu Sep 16, 3:04am

Thu Sep 16, 2:04am

Thu Sep 16, 1:04am

Thu Sep 16, 12:04am

Wed Sep 15, 11:04pm

Wed Sep 15, 10:04pm

Wed Sep 15, 9:04pm

Wed Sep 15, 8:04pm

Wed Sep 15, 7:04pm

Wed Sep 15, 6:04pm

Wed Sep 15, 5:05pm

Wed Sep 15, 4:04pm

Wed Sep 15, 3:04pm

Wed Sep 15, 2:04pm

Meta data:

ID: e2e1b88e-0f87-4e13-ad50-e35d0ba4eccc
Link: https://api.weather.gov/products/e2e1b88e-0f87-4e13-ad50-e35d0ba4eccc